This demonstration page uses our WeatherBlox Daily Observations layout. Learn more.

Left ArrowRight Arrow

41.12389, -100.76542

Hourly Observations for March 23, 2018

Temp ( °F °C ) Dew Point ( °F °C ) Humidity (%) Winds ( mph kmh ) Pressure ( in mb ) Visibility ( mi km ) Precip ( " mm )
12:53 am 00:53 Clear 52 11.1 39 3.9 61 61 ESE 15 24 29.96 1014 10 16 0.00 0.00
1:53 am 01:53 Clear 50 10 39 3.9 66 66 ESE 16 26 29.92 1013 10 16 0.00 0.00
2:53 am 02:53 Clear 49 9.4 39 3.9 69 69 ESE 17 28 29.91 1013 10 16 0.00 0.00
3:53 am 03:53 Partly Cloudy 48 8.9 39 3.9 71 71 ESE 12 19 29.88 1012 10 16 0.00 0.00
4:53 am 04:53 Clear 46 7.8 38 3.3 73 73 ESE 15 24 29.85 1011 10 16 0.00 0.00
5:53 am 05:53 Clear 45 7.2 38 3.3 77 77 E 14 22 29.86 1011 10 16 0.00 0.00
6:53 am 06:53 Clear 43 6.1 37 2.8 80 80 E 15 24 29.84 1011 10 16 0.00 0.00
7:53 am 07:53 Sunny 42 5.6 36 2.2 79 79 ESE 16 26 29.84 1011 10 16 0.00 0.00
8:53 am 08:53 Sunny 44 6.7 36 2.2 73 73 ESE 21 33 29.84 1010 10 16 0.00 0.00
9:53 am 09:53 Mostly Sunny 45 7.2 36 2.2 71 71 E 23 37 29.82 1010 10 16 0.00 0.00
10:48 am 10:48 Mostly Cloudy 48 9 37 3 66 66 E 20 31 29.83 1010 10 16 0.00 0.00
10:53 am 10:53 Mostly Cloudy 47 8.3 37 2.8 69 69 ESE 21 33 29.80 1009 10 16 0.00 0.00
11:25 am 11:25 Partly Cloudy 48 8.9 37 2.8 66 66 ESE 21 33 29.83 1010 10 16 0.00 0.00
11:53 am 11:53 Partly Cloudy 50 10 38 3.3 63 63 ESE 20 31 29.77 1008 10 16 0.00 0.00
12:53 pm 12:53 Sunny 53 11.7 40 4.4 61 61 E 17 28 29.74 1007 10 16 0.00 0.00
1:53 pm 13:53 Sunny 58 14.4 42 5.6 56 56 ESE 16 26 29.71 1006 10 16 0.00 0.00
2:53 pm 14:53 Sunny 60 15.6 43 6.1 53 53 ESE 8 13 29.68 1005 10 16 0.00 0.00
3:53 pm 15:53 Mostly Sunny 63 17.2 45 7.2 52 52 ENE 7 11 29.68 1005 10 16 0.00 0.00
4:53 pm 16:53 Mostly Cloudy 59 15 42 5.6 54 54 N 17 28 29.71 1006 10 16 0.00 0.00
5:53 pm 17:53 Cloudy 56 13.3 42 5.6 60 60 NNE 12 19 29.75 1008 10 16 0.00 0.00
6:53 pm 18:53 Cloudy with Light Rain 53 11.7 44 6.7 72 72 NNE 10 17 29.76 1008 8 13 0.00 0.03
7:53 pm 19:53 Cloudy with Light Rain 50 10 45 7.2 83 83 ENE 10 17 29.75 1008 7 11 0.02 0.51
8:53 pm 20:53 Mostly Clear 46 7.8 43 6.1 89 89 E 7 11 29.75 1008 7 11 0.00 0.03
9:53 pm 21:53 Clear with Mist and Fog 42 5.6 39 3.9 89 89 WNW 6 9 29.80 1009 4 6 0.00 0.00
10:41 pm 22:41 Clear with Mist and Fog 38 3.3 37 2.8 97 97 NNW 6 9 29.88 1012 2 3 0.00 0.00
10:53 pm 22:53 Mostly Clear with Mist and Fog 40 4.4 38 3.3 93 93 NNW 7 11 29.85 1011 3 5 0.00 0.00
11:53 pm 23:53 Mostly Clear with Mist and Fog 40 4.4 39 3.9 97 97 Calm 29.85 1011 3 5 0.00 0.00

Powered by AerisWeather